Weather History for Orangeburg, SC

Change the Weather History Date:

Sunday, December 23, 2012

  Actual Average Record
Temperature  
Mean Temperature 43 °F 46 °F  
Max Temperature 59 °F 57 °F 77 °F (1990)
Min Temperature 27 °F 36 °F 15 °F (1989)
Degree Days  
Heating Degree Days 22 19  
Month to date heating degree days 221 382  
Since 1 July heating degree days 671 751  
Cooling Degree Days 0 0  
Month to date cooling degree days 2 0  
Year to date cooling degree days 2322 2102  
Moisture  
Dew Point 27 °F    
Average Humidity 56    
Maximum Humidity 85    
Minimum Humidity 28    
Precipitation  
Precipitation 0.00 in 0.11 in 0.71 in (1980)
Month to date precipitation 1.85 2.58  
Year to date precipitation 40.15 45.99  
Sea Level Pressure  
Sea Level Pressure 30.14 in    
Wind  
Wind Speed 2 mph (SW)    
Max Wind Speed 13 mph    
Max Gust Speed 15 mph    
Visibility 10 miles    
Events      
T = Trace of Precipitation, MM = Missing Value Source: NWS Daily Summary

Daily Weather History Graph

Daily Weather History Graph

Search for Another Location

Airport:

Trip Planner

Search our weather history database for the weather conditions in past years. The results will help you decide how hot, cold, wet, or windy it might be!

Date:

Astronomy

Dec. 23, 2012 Rise Set
Actual Time 7:24 AM EST 5:20 PM EST
Civil Twilight 6:57 AM EST 5:48 PM EST
Nautical Twilight 6:26 AM EST 6:19 PM EST
Astronomical Twilight 5:55 AM EST 6:49 PM EST
Moon 2:05 PM EST (12/23) 3:12 AM EST (12/23)
Length of Visible Light 10h 51m
Length of Day
9h 56m
Waxing Gibbous, 81% of the Moon is Illuminated
Dec 23
Waxing Gibbous
Dec 28
Full
Jan 4
Last Quarter
Jan 11
New
Jan 18
First Quarter

Hourly Weather History & Observations

Time (EST) Temp. Windchill Dew Point Humidity Pressure Visibility Wind Dir Wind Speed Gust Speed Precip Events Conditions
12:53 AM 34.0 °F 31.0 °F 23.0 °F 64% 30.15 in 10.0 mi WSW 3.5 mph - N/A   Clear
1:53 AM 33.1 °F - 24.1 °F 70% 30.15 in 10.0 mi Calm Calm - N/A   Clear
2:53 AM 33.1 °F - 24.1 °F 70% 30.16 in 10.0 mi Calm Calm - N/A   Clear
3:53 AM 30.9 °F - 23.0 °F 72% 30.15 in 10.0 mi Calm Calm - N/A   Clear
4:53 AM 28.9 °F - 23.0 °F 78% 30.15 in 10.0 mi Calm Calm - N/A   Clear
5:53 AM 28.9 °F - 25.0 °F 85% 30.18 in 10.0 mi Calm Calm - N/A   Clear
6:53 AM 28.9 °F - 23.0 °F 78% 30.19 in 10.0 mi Calm Calm - N/A   Clear
7:53 AM 28.9 °F - 24.1 °F 82% 30.20 in 10.0 mi Calm Calm - N/A   Clear
8:53 AM 35.1 °F - 24.1 °F 64% 30.21 in 10.0 mi Calm Calm - N/A   Clear
9:53 AM 39.9 °F - 26.1 °F 58% 30.22 in 10.0 mi Calm Calm - N/A   Clear
10:53 AM 48.9 °F - 28.0 °F 44% 30.20 in 10.0 mi Calm Calm - N/A   Clear
11:53 AM 53.1 °F - 23.0 °F 31% 30.17 in 10.0 mi SW 5.8 mph - N/A   Clear
12:53 PM 54.0 °F - 23.0 °F 30% 30.14 in 10.0 mi West 5.8 mph - N/A   Clear
1:53 PM 55.9 °F - 26.1 °F 32% 30.12 in 10.0 mi WSW 10.4 mph - N/A   Clear
2:53 PM 57.9 °F - 25.0 °F 28% 30.10 in 10.0 mi WSW 10.4 mph - N/A   Clear
3:53 PM 57.9 °F - 28.0 °F 32% 30.10 in 10.0 mi SSW 6.9 mph - N/A   Clear
4:53 PM 55.0 °F - 30.9 °F 40% 30.10 in 10.0 mi SW 5.8 mph - N/A   Clear
5:53 PM 52.0 °F - 30.0 °F 43% 30.10 in 10.0 mi Calm Calm - N/A   Clear
6:53 PM 51.1 °F - 30.0 °F 44% 30.10 in 10.0 mi Calm Calm - N/A   Clear
7:53 PM 46.0 °F - 32.0 °F 58% 30.10 in 10.0 mi Calm Calm - N/A   Clear
8:53 PM 46.9 °F - 32.0 °F 56% 30.12 in 10.0 mi Calm Calm - N/A   Scattered Clouds
9:53 PM 44.1 °F - 30.9 °F 60% 30.12 in 10.0 mi Calm Calm - N/A   Clear
10:53 PM 41.0 °F - 32.0 °F 70% 30.13 in 10.0 mi Calm Calm - N/A   Clear
11:53 PM 44.1 °F 42.5 °F 32.0 °F 63% 30.11 in 10.0 mi SW 3.5 mph - N/A   Overcast